Find Starlink 4405

NORAD ID: 53201 Int'l Des: 2022-084 Owner: SPXS Country: US Constellation: starlink operational
LEOCIRCULARRETROGRADESSO

当前视图

正在加载3D地球...

About Starlink 4405

Starlink 4405 (NORAD 53201) is a starlink constellation satellite (v1.5) launched Jul 22, 2022 by SPXS of US. It operates in LEO, CIRCULAR, RETROGRADE, SSO orbit with a mass of 297.00 kg.

关于 Starlink 4405

正在加载描述...

即将过境

Passes for default location (London). Set your location on the main map for personalized predictions.

高度历史

Loading altitude history...

两行轨道根数

1 53201U 22084N 26164.50004630 .00134222 00000-0 41498-2 0 9996
2 53201 97.6010 226.7783 0001283 64.8082 157.5733 15.32952965 5916
Epoch: Jun 13, 2026 • Age: 5 hours

当前状态

高度 494.7 km
速度 7.62 km/s
星下点 -73.43°S, 134.17°W
发射日期 Jul 22, 2022
运行时间 3.8 years
类型 internet

技术详情

分类 Payload
质量 297.00 kg
干质量 275.00 kg
总质量 297.00 kg
长度 0.20 m
直径 2.80 m
跨度 9.00 m
形状 Box + pan
制造商 SPXS
平台类型 Starlink
阶段状态 In Orbit
所有者/国家 SPXS/US

Most Searched